Showing default

SPACEMOBILE-009, 69590

Orbit data source: Space-Track

SPACEMOBILE-009, 69590 is a payload satellite owned by AST & Science (US) in LEO that was launched on Wed, 17 Jun 2026 UTC via an FALCON 9 launch vehicle from the Air Force Eastern Test Range (AFETR). Payload-class satellites include a variety of spacecraft equipped with specific instruments for various scientific and technological missions. These include communications satellites like Starlink; space stations such as the ISS; scientific satellites like the Hubble; Earth observation satellites from companies like Planet Labs, Umbra, and HawkEye 360; GPS; miniature CubeSats for education and research; and military/defense satellites.

Loading next visibility...
Identifier
69590, 2026-139B
Orbit
LEO
Country
Flag of USUS
Related business
Manufacturer
AST & Science
Mission
Operational spacecraft
Bus & Motor
BB BLOCK-2, EP
Mass
5,850 kg wet, 5,830 kg dry
Launch date (UTC)
2026-06-17 (1 month ago)
Launch vehicle
FALCON 9
Launch site
Air Force Eastern Test Range (AFETR)
Object type
Payload
Rocket body
Debris
Shape & HBR
Unknown shape, 5.0 m
Radar Cross Section
Large (>1 m²)

Expand to show TLE details & history
Last TLE update: 18 hours ago

TLE from 18 hours ago
0 SPACEMOBILE-009
1 69590U 26139B   26202.43143916  .00001219  00000-0  85768-4 0  9994
2 69590  52.9944 107.1141 0005567  67.5981 292.5599 15.12709273  5168
Epoch: 2026-07-21T10:21Z
TLE epoch observation values (Epoch: 2026-07-21T10:21:16.343Z)
Latitude
-0.00004°
Longitude
12.59475°
Altitude
527.344 km
Speed
7.601 km/s
True Right ascension
07h 08m 27s
True Declination
0° 00' 00"
Sunlit
Object was in daylight at epoch
Visualization orbit readout
Latitude
Unknown
Longitude
Unknown
Altitude
Unknown
Speed
Unknown
Apparent Right ascension
Unknown
Apparent Declination
Unknown
Sunlit
N/A
Visualization observer readout
Local Sidereal Time
17:46:40
Azimuth
Unknown
Elevation
Unknown
Doppler factor
Unknown
Orbital elements
Apogee altitude
532.068 km
Perigee altitude
524.378 km
Semi-major axis
6,906.36 km
Eccentricity
0.00056
Inclination
52.9944°
RAAN
107.1141°
Arg. of periapsis
67.5981°
True anomaly
292.50097°
Mean anomaly
292.5599°
Eccentric anomaly
292.53044°
Mean motion
3.78155 °/min
Orbital period
95.2 mins
BSTAR
0.000085768
Loading maneuver chart data...
Computing Atmospheric mass density...
Loading historical data...
Loading historical data...
Loading historical data...
Loading historical data...
Loading historical data...
Loading historical data...
Loading historical data...
Other satellites on launch #139 in the year 2026 (2026-06-17 UTC)

Documentation

Showing up to 5 results
|